Date String (YYYY-MM-DD hh:mm:ss) UTC,Instrument flags,Ambient pressure (hPa),Sample flow (lpm),Bypass flow (lpm),Sample temperature (°C),Ambient temperature (°C),ASC tube jacket temperature (°C),LED temperature (°C),Box temperature (°C),Sample RH (%),Span deviation,Mass concentration (μg/m³),Mass concentration (μg/m³),Mass concentration (μg/m³)
DateTimeUTC,F1_M11,P_M11,Q1_M11,Q2_M11,T1_M11,T2_M11,T3_M11,T4_M11,T5_M11,U1_M11,ZSPAN_M11,X2_M11,X0_M11,X1_M11
2022-02-14 02:00:00,,0829.0,4.98,0.00,24.2,23.4,00.0,33.2,25.9,05.1,0000.0,0000.83,0002.15,0000.56
2022-02-14 02:01:00,,0829.0,5.00,0.00,24.2,23.3,00.0,33.2,25.9,05.2,0000.0,0000.84,0001.74,0000.56
2022-02-14 02:02:00,,0829.0,5.01,0.00,24.2,23.3,00.0,33.2,25.9,05.3,0000.0,0000.82,0001.45,0000.56
2022-02-14 02:03:00,,0828.9,5.00,0.00,24.2,23.3,00.0,33.2,25.9,05.1,0000.0,0000.80,0001.39,0000.56
2022-02-14 02:04:00,,0829.0,5.00,0.00,24.2,23.4,00.0,33.2,26.0,05.2,0000.0,0000.79,0001.35,0000.55
2022-02-14 02:05:00,,0829.1,5.01,0.00,24.2,23.4,00.0,33.2,25.9,05.2,0000.0,0000.80,0001.34,0000.56
2022-02-14 02:06:00,,0829.0,5.00,0.00,24.2,23.3,00.0,33.2,25.9,04.9,0000.0,0000.79,0001.31,0000.56
2022-02-14 02:07:00,,0829.0,5.01,0.00,24.2,23.3,00.0,33.2,25.9,04.9,0000.0,0000.75,0001.18,0000.56
2022-02-14 02:08:00,,0829.0,4.99,0.00,24.1,23.3,00.0,33.2,25.9,04.8,0000.0,0000.77,0001.24,0000.55
2022-02-14 02:09:00,,0829.1,5.00,0.00,24.1,23.3,00.0,33.2,25.9,05.1,0000.0,0000.80,0001.29,0000.56
2022-02-14 02:10:00,,0829.1,5.00,0.00,24.1,23.2,00.0,33.2,25.8,05.0,0000.0,0000.77,0001.18,0000.57
2022-02-14 02:11:00,,0829.1,5.01,0.00,24.1,23.2,00.0,33.2,25.8,05.0,0000.0,0000.77,0001.18,0000.57
2022-02-14 02:12:00,,0829.1,4.99,0.00,24.1,23.3,00.0,33.2,25.9,05.2,0000.0,0000.76,0001.16,0000.57
2022-02-14 02:13:00,,0829.1,5.02,0.00,24.1,23.2,00.0,33.2,25.9,05.0,0000.0,0000.76,0001.14,0000.57
2022-02-14 02:14:00,,0829.1,4.99,0.00,24.1,23.3,00.0,33.2,25.9,04.9,0000.0,0000.78,0001.19,0000.58
2022-02-14 02:15:00,,0829.1,5.01,0.00,24.1,23.3,00.0,33.2,25.9,04.9,0000.0,0000.78,0001.19,0000.59
2022-02-14 02:16:00,,0829.1,5.01,0.00,24.2,23.3,00.0,33.2,25.9,04.9,0000.0,0000.79,0001.20,0000.60
2022-02-14 02:17:00,,0829.1,4.99,0.00,24.2,23.4,00.0,33.2,25.9,04.9,0000.0,0000.88,0001.38,0000.60
2022-02-14 02:18:00,,0829.1,5.01,0.00,24.2,23.4,00.0,33.2,25.9,05.0,0000.0,0000.92,0002.59,0000.61
2022-02-14 02:19:00,,0829.0,4.99,0.00,24.2,23.4,00.0,33.2,26.0,05.0,0000.0,0000.89,0002.60,0000.60
2022-02-14 02:20:00,,0829.0,5.00,0.00,24.2,23.4,00.0,33.2,26.0,05.1,0000.0,0000.88,0002.59,0000.59
2022-02-14 02:21:00,,0829.1,5.00,0.00,24.2,23.4,00.0,33.2,26.0,05.0,0000.0,0000.93,0002.71,0000.59
2022-02-14 02:22:00,,0829.1,4.99,0.00,24.2,23.4,00.0,33.2,25.9,04.8,0000.0,0000.93,0002.94,0000.58
2022-02-14 02:23:00,,0829.1,5.02,0.00,24.2,23.4,00.0,33.2,25.9,05.1,0000.0,0000.99,0003.13,0000.59
2022-02-14 02:24:00,,0829.0,5.00,0.00,24.2,23.4,00.0,33.2,26.0,05.2,0000.0,0001.03,0003.23,0000.60
2022-02-14 02:25:00,,0829.1,4.98,0.00,24.2,23.4,00.0,33.2,25.9,05.1,0000.0,0001.07,0003.35,0000.61
2022-02-14 02:26:00,,0829.0,5.02,0.00,24.2,23.4,00.0,33.2,25.9,05.1,0000.0,0001.11,0003.47,0000.61
2022-02-14 02:27:00,,0829.1,4.98,0.00,24.2,23.4,00.0,33.2,25.9,04.9,0000.0,0001.17,0003.59,0000.61
2022-02-14 02:28:00,,0829.0,5.00,0.00,24.2,23.4,00.0,33.2,26.0,04.9,0000.0,0001.10,0003.47,0000.60
2022-02-14 02:29:00,,0829.0,5.00,0.00,24.2,23.4,00.0,33.2,26.0,04.9,0000.0,0001.07,0002.46,0000.60
2022-02-14 02:30:00,,0829.0,4.98,0.00,24.2,23.4,00.0,33.2,26.0,04.9,0000.0,0001.06,0002.19,0000.60
2022-02-14 02:31:00,,0829.0,5.01,0.00,24.2,23.5,00.0,33.2,26.0,04.8,0000.0,0001.06,0002.17,0000.61
2022-02-14 02:32:00,,0829.0,5.00,0.00,24.2,23.5,00.0,33.2,26.0,04.9,0000.0,0001.01,0002.05,0000.62
2022-02-14 02:33:00,,0829.1,4.99,0.00,24.2,23.5,00.0,33.2,26.0,04.9,0000.0,0001.02,0001.98,0000.62
2022-02-14 02:34:00,,0829.0,5.01,0.00,24.2,23.4,00.0,33.2,26.0,05.0,0000.0,0000.99,0001.73,0000.62
2022-02-14 02:35:00,,0829.0,5.00,0.00,24.2,23.4,00.0,33.2,26.0,05.0,0000.0,0000.93,0001.58,0000.61
2022-02-14 02:36:00,,0828.9,5.00,0.00,24.2,23.5,00.0,33.2,26.1,04.9,0000.0,0000.88,0001.47,0000.60
2022-02-14 02:37:00,,0829.0,4.99,0.00,24.2,23.5,00.0,33.2,26.1,04.9,0000.0,0000.83,0001.32,0000.59
2022-02-14 02:38:00,,0829.1,5.02,0.00,24.2,23.5,00.0,33.2,26.1,04.9,0000.0,0000.79,0001.22,0000.59
2022-02-14 02:39:00,,0829.0,4.99,0.00,24.2,23.5,00.0,33.2,26.0,04.9,0000.0,0000.75,0001.12,0000.60
2022-02-14 02:40:00,,0828.9,5.01,0.00,24.2,23.5,00.0,33.2,26.0,04.9,0000.0,0000.76,0001.12,0000.60
2022-02-14 02:41:00,,0829.0,4.98,0.00,24.2,23.5,00.0,33.2,26.0,04.9,0000.0,0000.77,0001.12,0000.60
2022-02-14 02:42:00,,0828.9,5.02,0.00,24.2,23.5,00.0,33.2,26.1,04.9,0000.0,0000.80,0001.19,0000.60
2022-02-14 02:43:00,,0828.9,4.98,0.00,24.2,23.5,00.0,33.2,26.1,04.8,0000.0,0000.83,0001.26,0000.60
2022-02-14 02:44:00,,0828.9,5.00,0.00,24.2,23.5,00.0,33.2,26.1,04.9,0000.0,0000.81,0001.22,0000.59
2022-02-14 02:45:00,,0828.9,4.99,0.00,24.2,23.5,00.0,33.2,26.1,04.8,0000.0,0000.82,0001.25,0000.60
2022-02-14 02:46:00,,0829.0,5.01,0.00,24.2,23.5,00.0,33.2,26.1,04.9,0000.0,0000.84,0001.27,0000.60
2022-02-14 02:47:00,,0829.0,5.00,0.00,24.2,23.5,00.0,33.2,26.0,04.9,0000.0,0000.83,0001.23,0000.60
2022-02-14 02:48:00,,0828.9,5.01,0.00,24.2,23.5,00.0,33.2,26.0,04.9,0000.0,0000.83,0001.24,0000.61
2022-02-14 02:49:00,,0829.0,4.99,0.00,24.3,23.5,00.0,33.2,26.1,04.9,0000.0,0000.83,0001.23,0000.60
2022-02-14 02:50:00,,0828.9,5.02,0.00,24.3,23.5,00.0,33.2,26.1,04.9,0000.0,0000.85,0001.37,0000.59
2022-02-14 02:51:00,,0828.8,4.99,0.00,24.3,23.5,00.0,33.2,26.1,05.0,0000.0,0000.85,0001.37,0000.60
2022-02-14 02:52:00,,0828.9,5.02,0.00,24.3,23.5,00.0,33.2,26.1,04.9,0000.0,0000.84,0001.35,0000.60
2022-02-14 02:53:00,,0829.1,4.98,0.00,24.3,23.5,00.0,33.2,26.1,04.9,0000.0,0000.82,0001.29,0000.59
2022-02-14 02:54:00,,0829.3,4.99,0.00,24.3,23.5,00.0,33.2,26.1,04.8,0000.0,0000.81,0001.25,0000.59
2022-02-14 02:55:00,,0829.1,5.01,0.00,24.3,23.5,00.0,33.2,26.1,04.8,0000.0,0000.81,0001.30,0000.60
2022-02-14 02:56:00,,0828.9,4.99,0.00,24.3,23.5,00.0,33.2,26.1,04.8,0000.0,0000.82,0001.37,0000.61
2022-02-14 02:57:00,,0828.9,5.02,0.00,24.3,23.5,00.0,33.2,26.1,04.8,0000.0,0000.83,0001.39,0000.61
2022-02-14 02:58:00,,0829.0,4.99,0.00,24.3,23.5,00.0,33.2,26.1,04.8,0000.0,0000.85,0001.47,0000.62
2022-02-14 02:59:00,,0828.9,4.99,0.00,24.3,23.5,00.0,33.2,26.1,04.8,0000.0,0000.87,0001.60,0000.61
